Time,TemperatureF,DewpointF,PressureIn,WindDirection,WindDirectionDegrees,WindSpeedMPH,WindSpeedGustMPH,Humidity,HourlyPrecipIn,Conditions,Clouds,dailyrainin,SoftwareType,DateUTC
2013-01-02 08:55:00,18.4,15.5,30.13,SW,225,5.3,5.3,88,-99.99,,,-99.99,VWS V14.01,2013-01-02 13:55:00,
2013-01-02 08:56:00,18.5,15.6,30.13,SW,225,5.9,5.9,88,-99.99,,,-99.99,VWS V14.01,2013-01-02 13:56:00,
2013-01-02 09:01:00,18.4,15.4,30.13,NW,312,6.9,10.7,88,-99.99,,,-99.99,VWS V14.01,2013-01-02 14:01:00,
2013-01-02 09:06:00,18.5,15.7,30.13,WSW,250,0.0,4.3,88,-99.99,,,-99.99,VWS V14.01,2013-01-02 14:06:00,
2013-01-02 09:11:00,18.7,15.8,30.13,SW,225,0.0,5.9,88,-99.99,,,-99.99,VWS V14.01,2013-01-02 14:11:00,
2013-01-02 09:16:00,18.8,16.4,30.14,West,259,0.0,3.0,90,-99.99,,,-99.99,VWS V14.01,2013-01-02 14:16:00,
2013-01-02 09:21:00,19.0,16.9,30.14,West,277,0.0,0.0,91,-99.99,,,-99.99,VWS V14.01,2013-01-02 14:21:00,
2013-01-02 09:26:00,18.9,16.8,30.14,WNW,287,0.0,0.0,92,-99.99,,,-99.99,VWS V14.01,2013-01-02 14:26:00,
2013-01-02 09:31:00,18.9,17.0,30.15,NW,321,0.0,0.0,92,-99.99,,,-99.99,VWS V14.01,2013-01-02 14:31:00,
2013-01-02 09:36:00,18.9,17.1,30.15,NW,321,0.0,2.1,93,-99.99,,,-99.99,VWS V14.01,2013-01-02 14:36:00,
2013-01-02 09:41:00,18.9,17.3,30.15,NW,321,0.0,0.0,93,-99.99,,,-99.99,VWS V14.01,2013-01-02 14:41:00,
2013-01-02 09:46:00,19.0,17.5,30.15,NW,321,0.0,0.0,94,-99.99,,,-99.99,VWS V14.01,2013-01-02 14:46:00,
2013-01-02 09:51:00,19.1,17.5,30.15,West,262,0.0,3.2,94,-99.99,,,-99.99,VWS V14.01,2013-01-02 14:51:00,
2013-01-02 09:56:00,19.2,17.6,30.15,West,262,0.0,0.0,93,-99.99,,,-99.99,VWS V14.01,2013-01-02 14:56:00,
2013-01-02 10:01:00,19.1,17.3,30.15,North,8,5.3,8.2,93,-99.99,,,-99.99,VWS V14.01,2013-01-02 15:01:00,
2013-01-02 10:05:00,19.2,17.3,30.15,WNW,284,0.0,4.1,92,-99.99,,,-99.99,VWS V14.01,2013-01-02 15:05:00,
2013-01-02 10:10:00,19.2,17.4,30.15,West,263,0.0,3.4,93,-99.99,,,-99.99,VWS V14.01,2013-01-02 15:10:00,
2013-01-02 10:15:00,19.3,17.1,30.15,NNW,330,7.0,7.0,91,-99.99,,,-99.99,VWS V14.01,2013-01-02 15:15:00,
2013-01-02 10:20:00,19.6,17.6,30.15,NW,325,0.0,0.0,92,-99.99,,,-99.99,VWS V14.01,2013-01-02 15:20:00,
2013-01-02 10:25:00,19.7,17.7,30.15,NW,325,0.0,0.0,92,-99.99,,,-99.99,VWS V14.01,2013-01-02 15:25:00,
2013-01-02 10:30:00,19.9,17.8,30.16,NNE,22,0.0,0.0,92,-99.99,,,-99.99,VWS V14.01,2013-01-02 15:30:00,
2013-01-02 10:35:00,19.8,17.7,30.15,NW,309,0.0,0.0,91,-99.99,,,-99.99,VWS V14.01,2013-01-02 15:35:00,
2013-01-02 10:40:00,19.8,16.9,30.15,NW,312,0.0,7.7,88,-99.99,,,-99.99,VWS V14.01,2013-01-02 15:40:00,
2013-01-02 10:45:00,19.5,15.9,30.16,NW,316,0.0,5.4,86,-99.99,,,-99.99,VWS V14.01,2013-01-02 15:45:00,
2013-01-02 10:50:00,19.6,16.0,30.16,West,278,3.5,5.3,86,-99.99,,,-99.99,VWS V14.01,2013-01-02 15:50:00,
2013-01-02 10:55:00,19.5,15.6,30.15,NW,311,0.0,5.3,85,-99.99,,,-99.99,VWS V14.01,2013-01-02 15:55:00,
2013-01-02 11:00:00,19.5,15.8,30.15,West,278,4.8,7.7,85,-99.99,,,-99.99,VWS V14.01,2013-01-02 16:00:00,
2013-01-02 11:05:00,19.9,16.3,30.15,WNW,287,0.0,0.0,86,-99.99,,,-99.99,VWS V14.01,2013-01-02 16:05:00,
2013-01-02 11:10:00,20.2,16.5,30.15,WNW,290,0.0,0.0,85,-99.99,,,-99.99,VWS V14.01,2013-01-02 16:10:00,
2013-01-02 11:26:00,20.2,16.1,30.15,NNW,338,4.9,4.9,84,-99.99,,,-99.99,VWS V14.01,2013-01-02 16:26:00,
2013-01-02 11:31:00,20.3,16.3,30.15,WNW,298,1.6,7.4,84,-99.99,,,-99.99,VWS V14.01,2013-01-02 16:31:00,
2013-01-02 11:36:00,20.2,15.9,30.14,WNW,298,0.0,0.0,83,-99.99,,,-99.99,VWS V14.01,2013-01-02 16:36:00,
2013-01-02 11:41:00,20.4,16.3,30.14,WNW,298,0.0,0.0,84,-99.99,,,-99.99,VWS V14.01,2013-01-02 16:41:00,
2013-01-02 11:56:00,21.0,16.7,30.15,SSW,207,0.0,0.0,83,-99.99,,,-99.99,VWS V14.01,2013-01-02 16:56:00,
2013-01-02 12:01:00,21.0,16.7,30.15,SW,233,0.0,4.6,83,-99.99,,,-99.99,VWS V14.01,2013-01-02 17:01:00,
2013-01-02 12:06:00,21.1,16.7,30.14,SW,233,0.0,0.0,83,-99.99,,,-99.99,VWS V14.01,2013-01-02 17:06:00,
2013-01-02 12:11:00,20.9,16.5,30.14,West,266,5.6,9.9,83,-99.99,,,-99.99,VWS V14.01,2013-01-02 17:11:00,
2013-01-02 12:16:00,21.0,16.6,30.14,WNW,290,0.0,2.7,83,-99.99,,,-99.99,VWS V14.01,2013-01-02 17:16:00,
2013-01-02 12:20:00,21.1,16.5,30.14,SW,228,0.0,0.0,82,-99.99,,,-99.99,VWS V14.01,2013-01-02 17:20:00,
2013-01-02 12:25:00,21.4,16.9,30.15,South,188,0.0,2.0,82,-99.99,,,-99.99,VWS V14.01,2013-01-02 17:25:00,
2013-01-02 12:30:00,21.4,16.2,30.15,SSW,197,0.0,0.0,80,-99.99,,,-99.99,VWS V14.01,2013-01-02 17:30:00,
2013-01-02 12:35:00,21.7,17.0,30.15,SW,225,0.0,0.0,82,-99.99,,,-99.99,VWS V14.01,2013-01-02 17:35:00,
2013-01-02 12:40:00,21.9,16.7,30.15,South,179,0.0,3.1,80,-99.99,,,-99.99,VWS V14.01,2013-01-02 17:40:00,
2013-01-02 12:45:00,22.2,17.0,30.15,West,260,0.0,1.9,80,-99.99,,,-99.99,VWS V14.01,2013-01-02 17:45:00,
2013-01-02 12:50:00,22.3,16.9,30.15,SW,233,0.0,4.7,79,-99.99,,,-99.99,VWS V14.01,2013-01-02 17:50:00,
2013-01-02 12:55:00,22.2,16.6,30.15,WSW,253,3.2,8.1,79,-99.99,,,-99.99,VWS V14.01,2013-01-02 17:55:00,
2013-01-02 13:00:00,22.2,16.7,30.15,SSW,211,0.0,0.0,79,-99.99,,,-99.99,VWS V14.01,2013-01-02 18:00:00,
2013-01-02 13:05:00,22.5,17.3,30.15,South,186,0.0,0.0,80,-99.99,,,-99.99,VWS V14.01,2013-01-02 18:05:00,
2013-01-02 13:10:00,22.7,17.2,30.16,South,186,0.0,0.0,79,-99.99,,,-99.99,VWS V14.01,2013-01-02 18:10:00,
2013-01-02 13:15:00,22.4,16.9,30.15,NW,307,9.4,9.9,79,-99.99,,,-99.99,VWS V14.01,2013-01-02 18:15:00,
2013-01-02 13:20:00,22.1,16.4,30.14,NW,316,4.8,7.3,78,-99.99,,,-99.99,VWS V14.01,2013-01-02 18:20:00,
2013-01-02 13:25:00,22.0,16.4,30.15,SSW,198,5.8,9.1,79,-99.99,,,-99.99,VWS V14.01,2013-01-02 18:25:00,
2013-01-02 13:30:00,21.9,16.4,30.15,West,260,5.0,5.0,79,-99.99,,,-99.99,VWS V14.01,2013-01-02 18:30:00,
2013-01-02 13:35:00,21.9,16.7,30.15,NNW,342,3.0,9.6,80,-99.99,,,-99.99,VWS V14.01,2013-01-02 18:35:00,
2013-01-02 13:40:00,22.0,16.7,30.15,West,270,0.0,0.0,80,-99.99,,,-99.99,VWS V14.01,2013-01-02 18:40:00,
2013-01-02 13:45:00,22.5,17.4,30.15,NNW,328,3.5,4.4,80,-99.99,,,-99.99,VWS V14.01,2013-01-02 18:45:00,
2013-01-02 13:50:00,23.0,17.5,30.15,SW,224,0.0,0.0,79,-99.99,,,-99.99,VWS V14.01,2013-01-02 18:50:00,
2013-01-02 13:55:00,23.6,17.8,30.15,NNE,15,5.5,6.6,78,-99.99,,,-99.99,VWS V14.01,2013-01-02 18:55:00,
2013-01-02 14:00:00,23.9,17.6,30.15,WNW,302,0.0,5.8,76,-99.99,,,-99.99,VWS V14.01,2013-01-02 19:00:00,
2013-01-02 14:05:00,24.3,18.1,30.14,WNW,302,0.0,0.0,77,-99.99,,,-99.99,VWS V14.01,2013-01-02 19:05:00,
2013-01-02 14:10:00,24.3,17.6,30.14,West,270,0.0,0.0,75,-99.99,,,-99.99,VWS V14.01,2013-01-02 19:10:00,
2013-01-02 14:15:00,24.2,17.3,30.15,West,263,0.0,3.0,75,-99.99,,,-99.99,VWS V14.01,2013-01-02 19:15:00,
2013-01-02 14:20:00,24.1,17.4,30.15,SSW,212,0.0,0.0,75,-99.99,,,-99.99,VWS V14.01,2013-01-02 19:20:00,
2013-01-02 14:25:00,24.0,17.5,30.15,West,259,2.8,2.8,76,-99.99,,,-99.99,VWS V14.01,2013-01-02 19:25:00,
2013-01-02 14:30:00,24.0,17.4,30.15,West,277,4.3,7.9,76,-99.99,,,-99.99,VWS V14.01,2013-01-02 19:30:00,
2013-01-02 14:35:00,24.0,17.3,30.15,SSE,153,0.0,0.0,75,-99.99,,,-99.99,VWS V14.01,2013-01-02 19:35:00,
2013-01-02 14:40:00,24.2,17.5,30.15,SSE,153,0.0,0.0,75,-99.99,,,-99.99,VWS V14.01,2013-01-02 19:40:00,
2013-01-02 14:45:00,24.3,17.3,30.15,SSE,153,0.0,0.0,74,-99.99,,,-99.99,VWS V14.01,2013-01-02 19:45:00,
2013-01-02 14:50:00,24.2,17.2,30.15,West,264,0.0,0.0,74,-99.99,,,-99.99,VWS V14.01,2013-01-02 19:50:00,
2013-01-02 14:55:00,24.3,17.6,30.15,West,264,0.0,0.0,75,-99.99,,,-99.99,VWS V14.01,2013-01-02 19:55:00,
2013-01-02 15:00:00,24.5,17.8,30.15,WSW,242,0.0,0.0,75,-99.99,,,-99.99,VWS V14.01,2013-01-02 20:00:00,
2013-01-02 15:05:00,24.4,17.4,30.15,North,3,0.0,8.9,74,-99.99,,,-99.99,VWS V14.01,2013-01-02 20:05:00,
2013-01-02 15:10:00,23.9,16.8,30.15,NW,315,0.0,0.0,74,-99.99,,,-99.99,VWS V14.01,2013-01-02 20:10:00,
2013-01-02 15:15:00,23.8,17.0,30.15,WSW,242,0.0,3.3,75,-99.99,,,-99.99,VWS V14.01,2013-01-02 20:15:00,
2013-01-02 15:20:00,23.8,17.0,30.15,NW,304,0.0,4.2,75,-99.99,,,-99.99,VWS V14.01,2013-01-02 20:20:00,
2013-01-02 15:25:00,23.8,17.2,30.14,NW,305,0.0,0.0,76,-99.99,,,-99.99,VWS V14.01,2013-01-02 20:25:00,
2013-01-02 15:30:00,23.7,17.0,30.15,WNW,301,4.5,5.2,75,-99.99,,,-99.99,VWS V14.01,2013-01-02 20:30:00,
2013-01-02 15:35:00,23.6,17.0,30.15,NW,307,0.0,0.0,75,-99.99,,,-99.99,VWS V14.01,2013-01-02 20:35:00,
2013-01-02 15:40:00,23.5,16.5,30.15,SSW,205,4.3,4.3,74,-99.99,,,-99.99,VWS V14.01,2013-01-02 20:40:00,
2013-01-02 15:45:00,23.4,16.5,30.15,NW,305,0.0,0.0,74,-99.99,,,-99.99,VWS V14.01,2013-01-02 20:45:00,
2013-01-02 15:50:00,23.4,16.8,30.15,WSW,243,0.0,0.0,75,-99.99,,,-99.99,VWS V14.01,2013-01-02 20:50:00,
2013-01-02 15:55:00,23.4,16.9,30.16,NNW,340,0.0,0.0,76,-99.99,,,-99.99,VWS V14.01,2013-01-02 20:55:00,
2013-01-02 16:00:00,23.4,16.8,30.16,NNW,340,0.0,0.0,75,-99.99,,,-99.99,VWS V14.01,2013-01-02 21:00:00,
2013-01-02 16:05:00,23.4,16.8,30.16,WSW,242,0.0,0.0,76,-99.99,,,-99.99,VWS V14.01,2013-01-02 21:05:00,
2013-01-02 16:10:00,23.5,17.0,30.16,WSW,239,0.0,0.0,76,-99.99,,,-99.99,VWS V14.01,2013-01-02 21:10:00,
2013-01-02 16:15:00,23.3,16.7,30.16,WSW,257,0.0,0.0,75,-99.99,,,-99.99,VWS V14.01,2013-01-02 21:15:00,
2013-01-02 16:20:00,23.1,16.4,30.16,WSW,253,0.0,3.4,75,-99.99,,,-99.99,VWS V14.01,2013-01-02 21:20:00,
2013-01-02 16:25:00,23.1,16.3,30.16,WNW,287,4.8,4.8,75,-99.99,,,-99.99,VWS V14.01,2013-01-02 21:25:00,
2013-01-02 16:30:00,23.2,16.7,30.16,WNW,295,0.0,0.0,76,-99.99,,,-99.99,VWS V14.01,2013-01-02 21:30:00,
2013-01-02 16:35:00,23.1,16.7,30.16,WNW,295,0.0,0.0,76,-99.99,,,-99.99,VWS V14.01,2013-01-02 21:35:00,
2013-01-02 16:40:00,23.1,16.9,30.16,NW,323,0.0,0.0,77,-99.99,,,-99.99,VWS V14.01,2013-01-02 21:40:00,
2013-01-02 16:45:00,23.1,17.0,30.16,NW,323,0.0,0.0,77,-99.99,,,-99.99,VWS V14.01,2013-01-02 21:45:00,
2013-01-02 16:50:00,23.0,17.0,30.16,NW,323,0.0,0.0,77,-99.99,,,-99.99,VWS V14.01,2013-01-02 21:50:00,
2013-01-02 16:55:00,23.0,17.3,30.17,NW,323,0.0,0.0,78,-99.99,,,-99.99,VWS V14.01,2013-01-02 21:55:00,
2013-01-02 17:00:00,23.0,17.4,30.17,NW,323,0.0,0.0,79,-99.99,,,-99.99,VWS V14.01,2013-01-02 22:00:00,
2013-01-02 17:05:00,22.8,17.3,30.16,NW,323,0.0,0.0,79,-99.99,,,-99.99,VWS V14.01,2013-01-02 22:05:00,
2013-01-02 17:10:00,22.7,17.2,30.16,NW,323,0.0,0.0,79,-99.99,,,-99.99,VWS V14.01,2013-01-02 22:10:00,
2013-01-02 17:15:00,22.5,17.1,30.16,NW,323,0.0,0.0,80,-99.99,,,-99.99,VWS V14.01,2013-01-02 22:15:00,
2013-01-02 17:20:00,22.3,17.0,30.16,NW,323,0.0,0.0,80,-99.99,,,-99.99,VWS V14.01,2013-01-02 22:20:00,
2013-01-02 17:25:00,22.2,17.1,30.16,NW,323,0.0,0.0,80,-99.99,,,-99.99,VWS V14.01,2013-01-02 22:25:00,
2013-01-02 17:30:00,22.1,17.1,30.16,NW,323,0.0,0.0,81,-99.99,,,-99.99,VWS V14.01,2013-01-02 22:30:00,
2013-01-02 17:35:00,22.0,17.0,30.16,NW,323,0.0,0.0,81,-99.99,,,-99.99,VWS V14.01,2013-01-02 22:35:00,
2013-01-02 17:40:00,21.8,16.9,30.16,NW,323,0.0,0.0,81,-99.99,,,-99.99,VWS V14.01,2013-01-02 22:40:00,
2013-01-02 17:45:00,21.6,16.9,30.16,NW,323,0.0,0.0,82,-99.99,,,-99.99,VWS V14.01,2013-01-02 22:45:00,
2013-01-02 17:50:00,21.4,17.1,30.16,NW,323,0.0,0.0,83,-99.99,,,-99.99,VWS V14.01,2013-01-02 22:50:00,
2013-01-02 17:55:00,21.1,17.2,30.16,NW,323,0.0,0.0,84,-99.99,,,-99.99,VWS V14.01,2013-01-02 22:55:00,
2013-01-02 18:00:00,20.9,17.2,30.17,NW,323,0.0,0.0,85,-99.99,,,-99.99,VWS V14.01,2013-01-02 23:00:00,
2013-01-02 18:05:00,20.6,17.1,30.17,NW,323,0.0,0.0,86,-99.99,,,-99.99,VWS V14.01,2013-01-02 23:05:00,
2013-01-02 18:10:00,20.2,17.0,30.17,NW,323,0.0,0.0,87,-99.99,,,-99.99,VWS V14.01,2013-01-02 23:10:00,
2013-01-02 18:15:00,20.0,16.8,30.18,NW,323,0.0,0.0,87,-99.99,,,-99.99,VWS V14.01,2013-01-02 23:15:00,
2013-01-02 18:20:00,19.7,16.6,30.18,NW,323,0.0,0.0,88,-99.99,,,-99.99,VWS V14.01,2013-01-02 23:20:00,
2013-01-02 18:25:00,19.4,16.5,30.18,NW,323,0.0,0.0,88,-99.99,,,-99.99,VWS V14.01,2013-01-02 23:25:00,
2013-01-02 18:30:00,19.2,16.5,30.18,NW,323,0.0,0.0,89,-99.99,,,-99.99,VWS V14.01,2013-01-02 23:30:00,
2013-01-02 18:35:00,18.9,16.3,30.18,NW,323,0.0,0.0,89,-99.99,,,-99.99,VWS V14.01,2013-01-02 23:35:00,
2013-01-02 18:40:00,18.8,16.2,30.17,NW,323,0.0,0.0,89,-99.99,,,-99.99,VWS V14.01,2013-01-02 23:40:00,
2013-01-02 18:45:00,18.6,16.1,30.18,NW,323,0.0,0.0,90,-99.99,,,-99.99,VWS V14.01,2013-01-02 23:45:00,
2013-01-02 18:50:00,18.5,16.1,30.18,NW,323,0.0,0.0,90,-99.99,,,-99.99,VWS V14.01,2013-01-02 23:50:00,
2013-01-02 18:55:00,18.4,16.2,30.18,NW,323,0.0,0.0,91,-99.99,,,-99.99,VWS V14.01,2013-01-02 23:55:00,
2013-01-02 18:59:00,18.4,16.3,30.18,NW,323,0.0,0.0,91,-99.99,,,-99.99,VWS V14.01,2013-01-02 23:59:00,
2013-01-02 19:04:00,18.3,16.3,30.18,NW,323,0.0,0.0,92,-99.99,,,-99.99,VWS V14.01,2013-01-03 00:04:00,
2013-01-02 19:09:00,18.2,16.3,30.18,NW,323,0.0,0.0,92,-99.99,,,-99.99,VWS V14.01,2013-01-03 00:09:00,
2013-01-02 19:14:00,18.2,16.4,30.18,NW,323,0.0,0.0,92,-99.99,,,-99.99,VWS V14.01,2013-01-03 00:14:00,
2013-01-02 19:19:00,18.2,16.3,30.18,NW,323,0.0,0.0,92,-99.99,,,-99.99,VWS V14.01,2013-01-03 00:19:00,
2013-01-02 19:24:00,18.2,16.4,30.18,NW,323,0.0,0.0,92,-99.99,,,-99.99,VWS V14.01,2013-01-03 00:24:00,
2013-01-02 19:29:00,18.1,16.3,30.18,NW,323,0.0,0.0,92,-99.99,,,-99.99,VWS V14.01,2013-01-03 00:29:00,
2013-01-02 19:35:00,18.1,16.3,30.19,NW,323,0.0,0.0,93,-99.99,,,-99.99,VWS V14.01,2013-01-03 00:35:00,
2013-01-02 19:40:00,18.1,16.4,30.19,NW,323,0.0,0.0,93,-99.99,,,-99.99,VWS V14.01,2013-01-03 00:40:00,
2013-01-02 19:45:00,18.1,16.5,30.19,NW,323,0.0,0.0,93,-99.99,,,-99.99,VWS V14.01,2013-01-03 00:45:00,
2013-01-02 19:50:00,18.1,16.5,30.19,NW,323,0.0,0.0,94,-99.99,,,-99.99,VWS V14.01,2013-01-03 00:50:00,
2013-01-02 19:55:00,18.0,16.5,30.19,NW,323,0.0,0.0,94,-99.99,,,-99.99,VWS V14.01,2013-01-03 00:55:00,
2013-01-02 20:00:00,18.2,16.7,30.20,NW,323,0.0,0.0,94,-99.99,,,-99.99,VWS V14.01,2013-01-03 01:00:00,
2013-01-02 20:05:00,18.0,16.4,30.19,NW,323,0.0,0.0,93,-99.99,,,-99.99,VWS V14.01,2013-01-03 01:05:00,
2013-01-02 20:10:00,17.7,16.2,30.19,NW,323,0.0,0.0,94,-99.99,,,-99.99,VWS V14.01,2013-01-03 01:10:00,
2013-01-02 20:15:00,17.6,16.2,30.19,NW,323,0.0,0.0,94,-99.99,,,-99.99,VWS V14.01,2013-01-03 01:15:00,
2013-01-02 20:20:00,17.4,16.1,30.19,NW,323,0.0,0.0,95,-99.99,,,-99.99,VWS V14.01,2013-01-03 01:20:00,
2013-01-02 20:25:00,17.3,16.0,30.19,NW,323,0.0,0.0,95,-99.99,,,-99.99,VWS V14.01,2013-01-03 01:25:00,
2013-01-02 20:30:00,17.1,15.8,30.19,NW,323,0.0,0.0,95,-99.99,,,-99.99,VWS V14.01,2013-01-03 01:30:00,
2013-01-02 20:35:00,17.3,16.1,30.19,NW,323,0.0,0.0,95,-99.99,,,-99.99,VWS V14.01,2013-01-03 01:35:00,
2013-01-02 20:40:00,17.3,16.1,30.19,NW,323,0.0,0.0,95,-99.99,,,-99.99,VWS V14.01,2013-01-03 01:40:00,
2013-01-02 20:45:00,17.3,16.1,30.19,NW,323,0.0,0.0,95,-99.99,,,-99.99,VWS V14.01,2013-01-03 01:45:00,
2013-01-02 20:50:00,17.3,16.1,30.19,NW,323,0.0,0.0,95,-99.99,,,-99.99,VWS V14.01,2013-01-03 01:50:00,
2013-01-02 20:55:00,17.2,16.0,30.19,NW,323,0.0,0.0,95,-99.99,,,-99.99,VWS V14.01,2013-01-03 01:55:00,
2013-01-02 21:00:00,17.2,16.0,30.19,NW,323,0.0,0.0,95,-99.99,,,-99.99,VWS V14.01,2013-01-03 02:00:00,
2013-01-02 21:05:00,17.2,16.0,30.19,NW,323,0.0,0.0,95,-99.99,,,-99.99,VWS V14.01,2013-01-03 02:05:00,
2013-01-02 21:10:00,17.2,16.0,30.19,NW,323,0.0,0.0,95,-99.99,,,-99.99,VWS V14.01,2013-01-03 02:10:00,
2013-01-02 21:15:00,17.2,16.1,30.20,NW,323,0.0,0.0,95,-99.99,,,-99.99,VWS V14.01,2013-01-03 02:15:00,
2013-01-02 21:20:00,17.1,16.0,30.20,NW,323,0.0,0.0,95,-99.99,,,-99.99,VWS V14.01,2013-01-03 02:20:00,
2013-01-02 21:25:00,17.1,16.1,30.20,NW,323,0.0,0.0,96,-99.99,,,-99.99,VWS V14.01,2013-01-03 02:25:00,
2013-01-02 21:29:00,17.2,16.2,30.20,NW,323,0.0,0.0,96,-99.99,,,-99.99,VWS V14.01,2013-01-03 02:29:00,
2013-01-02 21:34:00,16.9,15.8,30.20,NW,323,0.0,0.0,96,-99.99,,,-99.99,VWS V14.01,2013-01-03 02:34:00,
2013-01-02 21:39:00,16.8,15.9,30.20,NW,323,0.0,0.0,96,-99.99,,,-99.99,VWS V14.01,2013-01-03 02:39:00,
2013-01-02 21:44:00,16.7,15.8,30.20,NW,323,0.0,0.0,96,-99.99,,,-99.99,VWS V14.01,2013-01-03 02:44:00,
2013-01-02 21:49:00,16.6,15.8,30.20,NW,323,0.0,0.0,96,-99.99,,,-99.99,VWS V14.01,2013-01-03 02:49:00,
2013-01-02 21:54:00,16.5,15.7,30.20,NW,323,0.0,0.0,97,-99.99,,,-99.99,VWS V14.01,2013-01-03 02:54:00,
2013-01-02 21:59:00,16.5,15.7,30.20,NW,323,0.0,0.0,97,-99.99,,,-99.99,VWS V14.01,2013-01-03 02:59:00,
2013-01-02 22:04:00,16.4,15.6,30.20,NW,323,0.0,0.0,97,-99.99,,,-99.99,VWS V14.01,2013-01-03 03:04:00,
2013-01-02 22:09:00,16.5,15.8,30.21,NW,323,0.0,0.0,97,-99.99,,,-99.99,VWS V14.01,2013-01-03 03:09:00,
2013-01-02 22:14:00,16.5,15.8,30.20,NW,323,0.0,0.0,97,-99.99,,,-99.99,VWS V14.01,2013-01-03 03:14:00,
2013-01-02 22:19:00,16.5,15.8,30.21,NW,323,0.0,0.0,97,-99.99,,,-99.99,VWS V14.01,2013-01-03 03:19:00,
2013-01-02 22:24:00,16.3,15.6,30.21,NW,323,0.0,0.0,97,-99.99,,,-99.99,VWS V14.01,2013-01-03 03:24:00,
2013-01-02 22:30:00,16.3,15.6,30.21,NW,323,0.0,0.0,97,-99.99,,,-99.99,VWS V14.01,2013-01-03 03:30:00,
2013-01-02 22:36:00,16.2,15.5,30.21,NW,323,0.0,0.0,97,-99.99,,,-99.99,VWS V14.01,2013-01-03 03:36:00,
2013-01-02 22:41:00,16.2,15.6,30.21,NW,323,0.0,0.0,97,-99.99,,,-99.99,VWS V14.01,2013-01-03 03:41:00,
2013-01-02 22:46:00,16.2,15.6,30.21,NW,323,0.0,0.0,97,-99.99,,,-99.99,VWS V14.01,2013-01-03 03:46:00,
2013-01-02 22:51:00,16.2,15.6,30.21,NW,323,0.0,0.0,98,-99.99,,,-99.99,VWS V14.01,2013-01-03 03:51:00,
2013-01-02 22:56:00,16.3,15.7,30.21,NW,323,0.0,0.0,98,-99.99,,,-99.99,VWS V14.01,2013-01-03 03:56:00,
2013-01-02 23:01:00,16.3,15.7,30.21,NW,323,0.0,0.0,97,-99.99,,,-99.99,VWS V14.01,2013-01-03 04:01:00,
2013-01-02 23:06:00,16.3,15.7,30.21,NW,323,0.0,0.0,98,-99.99,,,-99.99,VWS V14.01,2013-01-03 04:06:00,
2013-01-02 23:11:00,16.3,15.7,30.21,NW,323,0.0,0.0,98,-99.99,,,-99.99,VWS V14.01,2013-01-03 04:11:00,
2013-01-02 23:16:00,16.3,15.7,30.21,NW,323,0.0,0.0,98,-99.99,,,-99.99,VWS V14.01,2013-01-03 04:16:00,
2013-01-02 23:21:00,16.3,15.7,30.22,NW,323,0.0,0.0,97,-99.99,,,-99.99,VWS V14.01,2013-01-03 04:21:00,
2013-01-02 23:26:00,16.2,15.6,30.21,NW,323,0.0,0.0,97,-99.99,,,-99.99,VWS V14.01,2013-01-03 04:26:00,
2013-01-02 23:31:00,16.0,15.4,30.21,NW,323,0.0,0.0,97,-99.99,,,-99.99,VWS V14.01,2013-01-03 04:31:00,
2013-01-02 23:36:00,15.8,15.3,30.21,NW,323,0.0,0.0,98,-99.99,,,-99.99,VWS V14.01,2013-01-03 04:36:00,
2013-01-02 23:41:00,15.8,15.4,30.21,NW,323,0.0,0.0,98,-99.99,,,-99.99,VWS V14.01,2013-01-03 04:41:00,
2013-01-02 23:46:00,15.7,15.3,30.20,NW,323,0.0,0.0,98,-99.99,,,-99.99,VWS V14.01,2013-01-03 04:46:00,
2013-01-02 23:51:00,15.8,15.4,30.20,NW,323,0.0,0.0,98,-99.99,,,-99.99,VWS V14.01,2013-01-03 04:51:00,
2013-01-02 23:56:00,15.8,15.4,30.20,NW,323,0.0,0.0,98,-99.99,,,-99.99,VWS V14.01,2013-01-03 04:56:00,